CW4778 Auckland NZ current weather conditions

sailwx.info

Wind from 276 at 1 knots gusting 6

Air temperature 15.6° C
Dewpoint 14.4° C

Last reported at 2014-Nov-27 15:48 UTC.
Time now 2014-Nov-27 16:08 UTC

Location: S 36°52' E 174°44'.
View on Google Maps.

See reports from other nearby stations

  
Tides and Currents Weather Stations Pressure Air Temp Water Temp Dewpoint Dewpoint Depression Visibility Wind Speed Wind Dir Waves Ship Positions
date/time (UTC)wind fromknots sea level pressurealtimeterstation pressurevisibilityair tempwater tempwave heightnotes
2014-Nov-27 15:48 276 1 gusting 6 15.6
2014-Nov-27 15:28 287 0 gusting 6 15.6
2014-Nov-27 15:08 308 3 gusting 7 15.0
2014-Nov-27 14:58 294 2 gusting 6 15.0
2014-Nov-27 14:38 296 3 gusting 7 15.0
2014-Nov-27 14:28 285 2 gusting 7 15.0
2014-Nov-27 14:18 270 15.0
2014-Nov-27 13:58 242 1 gusting 6 15.0
2014-Nov-27 13:48 270 1 gusting 6 15.0
2014-Nov-27 13:18 292 3 gusting 7 15.0
2014-Nov-27 12:58 287 1 gusting 6 15.0
2014-Nov-27 12:48 295 2 gusting 7 15.0
2014-Nov-27 12:28 298 1 gusting 6 15.0
2014-Nov-27 12:18 309 2 gusting 6 15.0
2014-Nov-27 11:58 335 2 gusting 6 15.0
2014-Nov-27 11:38 256 1 gusting 6 15.0
2014-Nov-27 11:28 297 0 gusting 6 15.0
2014-Nov-27 11:18 325 0 gusting 6 15.0
2014-Nov-27 10:58 308 3 gusting 7 15.0
2014-Nov-27 10:48 292 1 gusting 6 15.0
2014-Nov-27 10:28 315 1 gusting 6 15.0
2014-Nov-27 10:08 295 2 gusting 6 15.0
2014-Nov-27 09:58 295 0 gusting 7 15.0
2014-Nov-27 09:48 301 1 gusting 5 15.0
2014-Nov-27 09:28 296 2 gusting 7 15.0
2014-Nov-27 09:18 276 2 gusting 6 15.0
2014-Nov-27 08:58 296 2 gusting 6 15.0
2014-Nov-27 08:48 287 2 gusting 7 15.0
2014-Nov-27 08:28 276 1 gusting 6 15.0
2014-Nov-27 08:18 286 0 gusting 7 15.6
2014-Nov-27 07:58 286 3 gusting 7 15.6
2014-Nov-27 07:48 332 2 gusting 7 15.6
2014-Nov-27 07:28 271 2 gusting 8 16.1
2014-Nov-27 07:18 280 2 gusting 8 16.1
2014-Nov-27 06:58 292 4 gusting 8 16.1
2014-Nov-27 06:48 277 3 gusting 11 16.7
2014-Nov-27 06:28 270 2 gusting 10 17.2
2014-Nov-27 06:18 322 5 gusting 10 17.2
2014-Nov-27 05:58 283 5 gusting 12 17.8
2014-Nov-27 05:48 263 5 gusting 13 18.3
2014-Nov-27 05:28 278 5 gusting 12 18.3
2014-Nov-27 05:18 245 6 gusting 12 18.9
2014-Nov-27 04:58 275 5 gusting 11 18.9
2014-Nov-27 04:48 252 6 gusting 11 18.9
2014-Nov-27 04:28 265 5 gusting 10 20.0
2014-Nov-27 04:18 265 4 gusting 14 19.4
2014-Nov-27 03:48 275 6 gusting 13 20.0
2014-Nov-27 03:28 281 5 gusting 17 20.6
2014-Nov-27 03:18 251 4 gusting 11 21.1
2014-Nov-27 02:58 279 7 gusting 13 20.6
2014-Nov-27 02:48 303 4 gusting 12 20.0
2014-Nov-27 02:08 287 6 gusting 14 21.7
2014-Nov-27 01:58 316 6 gusting 14 21.7
2014-Nov-27 01:48 278 6 gusting 13 21.1
2014-Nov-27 01:28 257 5 gusting 13 19.4
2014-Nov-27 01:18 325 3 gusting 11 20.6
2014-Nov-27 00:58 260 5 gusting 12 22.2
2014-Nov-27 00:48 341 5 gusting 13 21.7
2014-Nov-27 00:28 272 8 gusting 17 21.7
2014-Nov-27 00:18 277 4 gusting 13 21.1
2014-Nov-26 23:58 338 6 gusting 14 21.1
2014-Nov-26 23:48 246 6 gusting 14 20.6
2014-Nov-26 23:28 314 6 gusting 13 21.7
2014-Nov-26 23:18 273 6 gusting 13 21.1
2014-Nov-26 22:58 271 6 gusting 13 21.7
2014-Nov-26 22:38 265 5 gusting 10 21.1
2014-Nov-26 22:28 284 6 gusting 10 20.6
2014-Nov-26 22:18 269 3 gusting 11 21.1
2014-Nov-26 21:58 239 5 gusting 8 21.1
2014-Nov-26 21:48 228 2 gusting 8 21.7
2014-Nov-26 21:28 258 1 gusting 8 20.6
2014-Nov-26 21:18 250 3 gusting 10 19.4
2014-Nov-26 20:58 269 4 gusting 8 19.4
2014-Nov-26 20:48 257 4 gusting 8 18.9
2014-Nov-26 20:18 253 4 gusting 10 18.3
2014-Nov-26 19:58 263 1 gusting 6 17.2
2014-Nov-26 19:48 268 1 gusting 6 16.7
2014-Nov-26 19:18 313 0 gusting 5 15.6
2014-Nov-26 18:58 257 0 gusting 5 15.0
2014-Nov-26 18:48 254 14.4
2014-Nov-26 18:28 295 0 gusting 4 13.9
2014-Nov-26 18:18 300 0 gusting 1 13.3
2014-Nov-26 17:48 229 11.7
2014-Nov-26 17:18 229 10.0
2014-Nov-26 16:58 231 10.6
2014-Nov-26 16:38 230 10.6
2014-Nov-26 16:28 229 10.0
2014-Nov-26 16:18 229 10.0
2014-Nov-26 15:58 229 10.0
2014-Nov-26 15:48 228 10.0
2014-Nov-26 15:28 230 10.6
2014-Nov-26 15:18 228 10.6
2014-Nov-26 14:48 230 11.1
2014-Nov-26 14:28 229 11.1
2014-Nov-26 14:18 227 11.1
2014-Nov-26 13:58 224 11.1
2014-Nov-26 13:38 224 11.7
2014-Nov-26 13:28 223 11.7
2014-Nov-26 13:18 225 11.7
2014-Nov-26 12:58 338 12.2
2014-Nov-26 12:28 255 12.2
2014-Nov-26 12:18 255 12.2
2014-Nov-26 11:58 252 0 gusting 1 12.8
2014-Nov-26 11:48 254 12.8
2014-Nov-26 11:28 240 13.3
2014-Nov-26 11:18 239 0 gusting 1 13.9
2014-Nov-26 10:58 240 0 gusting 4 13.9
2014-Nov-26 10:48 256 13.9
2014-Nov-26 10:28 243 0 gusting 4 13.9
2014-Nov-26 10:18 231 0 gusting 5 13.9
2014-Nov-26 09:48 275 0 gusting 1 13.9
2014-Nov-26 09:28 274 14.4
2014-Nov-26 09:18 273 15.0
2014-Nov-26 08:58 240 0 gusting 5 15.0
2014-Nov-26 08:28 254 15.0
2014-Nov-26 08:18 260 0 gusting 4 15.0
2014-Nov-26 07:58 194 1 gusting 4 15.6
2014-Nov-26 07:48 243 15.6
2014-Nov-26 07:28 231 0 gusting 4 15.6
2014-Nov-26 07:18 210 1 gusting 6 15.6
2014-Nov-26 06:58 203 3 gusting 11 16.1
2014-Nov-26 06:48 199 4 gusting 11 16.1
2014-Nov-26 06:18 210 2 gusting 7 16.7
2014-Nov-26 05:58 219 6 gusting 12 17.2
2014-Nov-26 05:28 201 7 gusting 12 17.8
2014-Nov-26 05:18 205 6 gusting 11 18.3
2014-Nov-26 04:58 200 5 gusting 10 18.3
2014-Nov-26 04:48 181 6 gusting 12 18.3
2014-Nov-26 04:38 196 7 gusting 11 18.9
2014-Nov-26 04:28 200 6 gusting 11 19.4
2014-Nov-26 04:18 184 3 gusting 7 20.0
2014-Nov-26 04:08 213 3 gusting 8 20.0
2014-Nov-26 03:48 192 6 gusting 12 20.0
2014-Nov-26 03:28 235 4 gusting 8 20.6
2014-Nov-26 03:18 165 5 gusting 12 19.4
2014-Nov-26 02:58 329 6 gusting 13 18.9
2014-Nov-26 02:48 201 4 gusting 12 19.4
2014-Nov-26 02:28 228 5 gusting 7 20.6
2014-Nov-26 02:18 148 1 gusting 10 20.0
2014-Nov-26 01:58 203 1 gusting 10 20.0
2014-Nov-26 01:48 202 6 gusting 11 19.4
2014-Nov-26 01:08 212 5 gusting 12 20.0
2014-Nov-26 00:58 209 6 gusting 17 19.4
2014-Nov-26 00:48 241 10 gusting 17 19.4
2014-Nov-26 00:28 205 6 gusting 19 18.9
2014-Nov-26 00:18 230 6 gusting 13 18.9
2014-Nov-25 23:58 278 5 gusting 13 21.7
2014-Nov-25 23:48 273 6 gusting 17 21.1
2014-Nov-25 23:38 285 6 gusting 17 21.7
2014-Nov-25 23:28 276 5 gusting 18 21.1
2014-Nov-25 23:18 273 6 gusting 18 21.1
2014-Nov-25 22:58 288 6 gusting 17 21.1
2014-Nov-25 22:48 276 5 gusting 13 20.6
2014-Nov-25 22:18 270 7 gusting 19 20.6
2014-Nov-25 21:48 299 4 gusting 12 20.6
2014-Nov-25 21:28 293 6 gusting 13 20.0
2014-Nov-25 21:18 262 6 gusting 13 20.0
2014-Nov-25 20:58 292 5 gusting 13 20.0
2014-Nov-25 20:38 276 6 gusting 12 19.4
2014-Nov-25 20:28 307 2 gusting 17 19.4
2014-Nov-25 20:18 300 5 gusting 18 19.4
2014-Nov-25 19:58 288 6 gusting 13 19.4
2014-Nov-25 19:48 272 5 gusting 8 19.4
2014-Nov-25 19:38 276 3 gusting 7 18.9
2014-Nov-25 19:28 349 0 gusting 5 18.9
2014-Nov-25 19:18 322 0 gusting 4 18.3
2014-Nov-25 19:08 332 0 gusting 4 18.3
2014-Nov-25 18:58 337 18.3
2014-Nov-25 18:48 338 0 gusting 2 18.3
2014-Nov-25 18:28 330 0 gusting 5 17.8
2014-Nov-25 18:18 325 1 gusting 5 17.8
2014-Nov-25 17:58 300 0 gusting 1 17.2
2014-Nov-25 17:48 295 17.2
2014-Nov-25 17:38 296 17.2
2014-Nov-25 17:28 295 16.7
2014-Nov-25 17:08 275 2 gusting 6 16.7
2014-Nov-25 16:58 314 0 gusting 4 16.7
2014-Nov-25 16:38 283 16.7
2014-Nov-25 16:28 274 1 gusting 4 16.7
2014-Nov-25 16:18 289 1 gusting 6 16.7
2014-Nov-25 16:08 300 16.7